Location: Newark
(30.3369°N, 81.6614°W)
Time: 20:04:04
(UTC+00:00)

N. Korean satellite - Pass Details

Date: 06 October 2020
Orbit: 452 x 505 km, 97.2° (Epoch: 28 October)

Event Time Altitude Azimuth Distance (km) Brightness Sun altitude
Rises 09:59:44 0° 35° (NE) 2,517 10.8 -18.9°
Reaches altitude 10° 10:02:38 10° 62° (ENE) 1,623 10.2 -18.2°
Maximum altitude 10:04:30 14° 94° (E) 1,392 10.0 -17.8°
Drops below altitude 10° 10:06:20 10° 127° (SE) 1,603 9.9 -17.4°
Sets 10:09:10 0° 154° (SSE) 2,463 10.4 -16.8°
